Location: Devargunta
(16.7631°N, 80.9077°E)
Time: 10:21:24
(UTC+00:00)

USA 267 - Pass Details

Date: 19 January 2021
Orbit: 1102 x 1106 km, 123.0° (Epoch: 22 February)

Event Time Altitude Azimuth Distance (km) Brightness Sun altitude
Rises 23:29:14 0° 152° (SSE) 3,909 6.8 -23.6°
Reaches altitude 10° 23:31:45 10° 157° (SSE) 2,951 6.0 -23.0°
Maximum altitude 23:38:07 57° 234° (SW) 1,281 3.4 -21.5°
Enters shadow 23:40:47 35° 294° (WNW) 1,699 3.7 -20.9°
